GW3247 Weather Reports


Display with metric or nautical units.
time (UTC)temp
F
wind
direction
speed
MPH
gust
MPH
rain 1hr
in
rain 24hr
in
rain mn
in
humidity
%
barometer
mb
20260508173006 57 224 8.0 14.0 0.00 0.00 0.00 34 1023.5
20260508171505 58 201 7.0 12.0 0.00 0.00 0.00 31 1023.5
20260508170005 58 233 9.0 15.0 0.00 0.00 0.00 30 1023.3
20260508164504 59 164 8.0 13.0 0.00 0.00 0.00 30 1023.3
20260508163109 59 202 7.0 0.0 0.00 0.00 0.00 28 1023.1
20260508161504 59 204 10.0 16.0 0.00 0.00 0.00 27 1023.1
20260508160002 60 215 6.0 13.0 0.00 0.00 0.00 27 1023.0
20260508154623 60 233 5.0 13.0 0.00 0.00 0.00 26 1023.0
20260508153058 60 238 7.0 13.0 0.00 0.00 0.00 26 1023.1
20260508151609 60 164 8.0 14.0 0.00 0.00 0.00 25 1023.2
20260508150058 59 150 7.0 14.0 0.00 0.00 0.00 27 1023.2
20260508144609 59 217 7.0 13.0 0.00 0.00 0.00 27 1023.4
20260508143105 60 193 8.0 12.0 0.00 0.00 0.00 28 1023.4
20260508141605 59 181 6.0 12.0 0.00 0.00 0.00 30 1023.4
20260508140055 59 226 7.0 13.0 0.00 0.00 0.00 30 1023.6
20260508134616 60 166 8.0 12.0 0.00 0.00 0.00 31 1023.5
20260508133058 59 218 8.0 14.0 0.00 0.00 0.00 34 1023.6
20260508131552 59 146 7.0 16.0 0.00 0.00 0.00 35 1023.6
20260508130051 59 210 6.0 15.0 0.00 0.00 0.00 35 1023.6
20260508124550 59 239 3.0 13.0 0.00 0.00 0.00 35 1023.5
20260508123052 59 198 7.0 14.0 0.00 0.00 0.00 35 1023.7
20260508121650 59 214 7.0 12.0 0.00 0.00 0.00 35 1023.6
20260508120047 59 160 3.0 13.0 0.00 0.00 0.00 36 1023.6
20260508114545 59 174 6.0 12.0 0.00 0.00 0.00 36 1023.7
20260508113044 58 242 7.0 12.0 0.00 0.00 0.00 34 1023.7
20260508111543 58 153 7.0 10.0 0.00 0.00 0.00 35 1023.8
20260508110040 57 146 4.0 10.0 0.00 0.00 0.00 37 1023.8
20260508104540 57 181 6.0 11.0 0.00 0.00 0.00 38 1023.9
20260508103038 56 169 9.0 15.0 0.00 0.00 0.00 40 1023.9
20260508101536 56 214 8.0 14.0 0.00 0.00 0.00 40 1023.9
20260508100034 55 167 5.0 14.0 0.00 0.00 0.00 43 1023.9
20260508094533 55 216 8.0 13.0 0.00 0.00 0.00 43 1023.9
20260508093032 55 203 8.0 12.0 0.00 0.00 0.00 40 1024.0
20260508091529 54 137 9.0 15.0 0.00 0.00 0.00 37 1023.9
20260508090043 54 205 8.0 14.0 0.00 0.00 0.00 44 1023.9
20260508084522 54 203 8.0 15.0 0.00 0.00 0.00 51 1023.9
20260508083020 54 200 8.0 11.0 0.00 0.00 0.00 54 1023.7
20260508081516 53 179 5.0 13.0 0.00 0.00 0.00 59 1023.6
20260508080017 53 158 6.0 11.0 0.00 0.00 0.00 61 1023.7
20260508074511 52 203 8.0 12.0 0.00 0.00 0.00 64 1023.6
20260508073008 51 233 8.0 11.0 0.00 0.00 0.00 72 1023.5
20260508071507 51 163 5.0 9.0 0.00 0.00 0.00 74 1023.4
20260508070003 51 166 7.0 10.0 0.00 0.00 0.00 76 1023.1
20260508064620 51 126 7.0 11.0 0.00 0.00 0.00 78 1022.9
20260508063109 50 122 7.0 9.0 0.00 0.00 0.00 80 1022.8
20260508061606 50 127 4.0 7.0 0.00 0.00 0.00 82 1022.6
20260508054548 49 141 0.0 2.0 0.00 0.00 0.00 86 1022.2
20260508053043 46 138 0.0 2.0 0.00 0.00 0.00 87 1022.1
20260508051556 44 221 2.0 3.0 0.00 0.00 0.00 87 1022.1
20260508050039 43 227 1.0 2.0 0.00 0.00 0.00 88 1022.0
20260508044537 42 232 1.0 2.0 0.00 0.00 0.00 88 1021.9
20260508043032 41 226 1.0 2.0 0.00 0.00 0.00 89 1021.8
20260508041528 40 221 2.0 3.0 0.00 0.00 0.00 89 1021.7
20260508040026 39 226 2.0 3.0 0.00 0.00 0.00 89 1021.6
20260508034537 39 225 1.0 3.0 0.00 0.00 0.00 88 1021.6
20260508033023 38 209 1.0 3.0 0.00 0.00 0.00 88 1021.5
20260508031522 39 238 3.0 4.0 0.00 0.00 0.00 88 1021.5
20260508030020 39 233 3.0 4.0 0.00 0.00 0.00 88 1021.4
20260508024540 39 240 3.0 4.0 0.00 0.00 0.00 88 1021.2
20260508023015 39 232 2.0 3.0 0.00 0.00 0.00 88 1021.2
20260508021519 39 219 2.0 4.0 0.00 0.00 0.00 88 1021.1
20260508020013 40 216 2.0 3.0 0.00 0.00 0.00 88 1021.0
20260508014512 40 227 2.0 4.0 0.00 0.00 0.00 88 1020.9
20260508013013 39 231 2.0 4.0 0.00 0.00 0.00 88 1020.9
20260508011506 39 238 2.0 4.0 0.00 0.00 0.00 87 1020.8
20260508010008 39 245 2.0 4.0 0.00 0.00 0.00 87 1020.8
20260508004503 40 249 2.0 3.0 0.00 0.00 0.00 86 1020.7
20260508003001 40 231 2.0 4.0 0.00 0.00 0.00 86 1020.6
20260508001600 40 242 2.0 3.0 0.00 0.00 0.00 86 1020.7
20260508000058 40 233 2.0 3.0 0.00 0.00 0.00 85 1020.6
20260507234558 41 240 2.0 3.0 0.00 0.00 0.00 84 1020.6
20260507233058 41 231 2.0 3.0 0.00 0.00 0.00 83 1020.6
20260507231555 42 236 1.0 3.0 0.00 0.00 0.00 83 1020.6
20260507230105 42 236 1.0 2.0 0.00 0.00 0.00 82 1020.5
20260507224552 42 236 1.0 2.0 0.00 0.00 0.00 81 1020.4
20260507223044 42 245 1.0 2.0 0.00 0.00 0.00 80 1020.4
20260507221544 43 233 1.0 3.0 0.00 0.00 0.00 79 1020.4
20260507220039 43 224 1.0 3.0 0.00 0.00 0.00 78 1020.3
20260507214538 44 226 1.0 3.0 0.00 0.00 0.00 76 1020.2
20260507213037 46 250 0.0 2.0 0.00 0.00 0.00 75 1020.1
20260507211535 47 219 0.0 1.0 0.00 0.00 0.00 71 1020.2
20260507210038 51 46 0.0 5.0 0.00 0.00 0.00 69 1019.9
20260507204532 51 48 4.0 5.0 0.00 0.00 0.00 70 1019.8
20260507203051 51 60 3.0 5.0 0.00 0.00 0.00 71 1019.7
20260507201532 51 53 4.0 7.0 0.00 0.00 0.00 71 1019.6
20260507200028 51 39 5.0 8.0 0.00 0.00 0.00 73 1019.4
20260507194529 51 46 5.0 8.0 0.00 0.00 0.00 72 1019.4
20260507193026 51 41 4.0 8.0 0.00 0.00 0.00 71 1019.2
20260507191523 51 34 6.0 8.0 0.00 0.00 0.00 71 1019.1
20260507190022 52 41 5.0 8.0 0.00 0.00 0.00 71 1018.9
20260507184523 52 56 5.0 8.0 0.00 0.00 0.00 67 1018.7
20260507183018 52 35 6.0 9.0 0.00 0.00 0.00 69 1018.6
20260507181517 52 35 5.0 9.0 0.00 0.00 0.00 69 1018.6
20260507180021 52 37 7.0 9.0 0.00 0.00 0.00 67 1018.4
20260507174523 52 356 7.0 11.0 0.00 0.00 0.00 68 1018.3